Weather History for EINN - February, 2014

Change the Weather History Date:

Wednesday, February 19, 2014

  Actual Average Record
Temperature  
Mean Temperature 48 °F -  
Max Temperature 53 °F 50 °F 55 °F (1998)
Min Temperature 43 °F 38 °F 26 °F (2004)
Degree Days  
Heating Degree Days 17    
Moisture  
Dew Point 46 °F    
Average Humidity 90    
Maximum Humidity 100    
Minimum Humidity 71    
Precipitation  
Precipitation 0.00 in 0.09 in - ()
Sea Level Pressure  
Sea Level Pressure 29.63 in    
Wind  
Wind Speed 9 mph ()    
Max Wind Speed 20 mph    
Max Gust Speed -    
Visibility 7.9 miles    
Events Rain    
Averages and records for this station are not official NWS values.
T = Trace of Precipitation, MM = Missing Value Source: Averaged Metar Reports

Daily Weather History Graph

Daily Weather History Graph

Search for Another Location

Airport or City:

Trip Planner

Search our weather history database for the weather conditions in past years. The results will help you decide how hot, cold, wet, or windy it might be!

Date:

Astronomy

Feb. 19, 2014 Rise Set
Actual Time 7:44 AM GMT 5:55 PM GMT
Civil Twilight 7:09 AM GMT 6:30 PM GMT
Nautical Twilight 6:29 AM GMT 7:10 PM GMT
Astronomical Twilight 5:49 AM GMT 7:50 PM GMT
Moon 11:18 PM GMT (2/19) 9:04 AM GMT (2/19)
Length of Visible Light 11h 21m
Length of Day
10h 11m
Waning Gibbous, 81% of the Moon is Illuminated
Feb 19
Waning Gibbous
Feb 22
Last Quarter
Mar 1
New
Mar 8
First Quarter
Mar 16
Full

Hourly Weather History & Observations

Time (GMT) Temp. Windchill Dew Point Humidity Pressure Visibility Wind Dir Wind Speed Gust Speed Precip Events Conditions
12:00 AM 45 °F - 44 °F 92% 29.79 in 12 mi SSW 8.9 mph - - Rain Light Drizzle
12:00 AM 44.6 °F 39.7 °F 42.8 °F 93% 29.77 in 6.2 mi SSW 9.2 mph - N/A   Mostly Cloudy
12:30 AM 46.4 °F 41.9 °F 42.8 °F 87% 29.77 in 6.2 mi SSW 9.2 mph - N/A   Mostly Cloudy
1:00 AM 45 °F - 43 °F 91% 29.78 in 11 mi South 8.9 mph - - Rain Light Drizzle
1:00 AM 44.6 °F 39.7 °F 42.8 °F 93% 29.77 in 6.2 mi South 9.2 mph - N/A   Light Drizzle
1:30 AM 44.6 °F 39.7 °F 42.8 °F 93% 29.77 in 6.2 mi SSW 9.2 mph - N/A   Light Drizzle
2:00 AM 45 °F - 43 °F 90% 29.79 in 4 mi South 6.7 mph - - Rain Light Drizzle
2:00 AM 44.6 °F 40.7 °F 42.8 °F 93% 29.77 in 4.3 mi South 6.9 mph - N/A   Light Drizzle
2:30 AM 44.6 °F 40.7 °F 44.6 °F 100% 29.77 in 2.5 mi South 6.9 mph - N/A   Light Drizzle
3:00 AM 45 °F - 44 °F 95% 29.77 in 4 mi SE 6.7 mph - - Rain Light Drizzle
3:00 AM 44.6 °F 40.7 °F 44.6 °F 100% 29.77 in 4.3 mi SE 6.9 mph - N/A   Light Drizzle
3:30 AM 44.6 °F 39.7 °F 44.6 °F 100% 29.74 in 6.2 mi SE 9.2 mph - N/A   Light Drizzle
4:00 AM 45 °F - 44 °F 94% 29.76 in 12 mi SSE 8.9 mph - - Rain Light Drizzle
4:00 AM 44.6 °F 39.7 °F 44.6 °F 100% 29.74 in 6.2 mi SSE 9.2 mph - N/A   Mostly Cloudy
4:30 AM 44.6 °F 39.2 °F 44.6 °F 100% 29.74 in 3.1 mi SSE 10.4 mph - N/A Rain Light Rain
5:00 AM 45 °F - 44 °F 97% 29.75 in 4 mi SSE 8.9 mph - - Rain Light Drizzle
5:00 AM 44.6 °F 40.2 °F 44.6 °F 100% 29.74 in 4.3 mi SSE 8.1 mph - N/A   Light Drizzle
5:30 AM 44.6 °F 41.4 °F 44.6 °F 100% 29.74 in 6.2 mi SE 5.8 mph - N/A   Mostly Cloudy
6:00 AM 46 °F - 45 °F 93% 29.75 in 12 mi SE 6.7 mph - - Rain Light Drizzle
6:00 AM 46.4 °F 43.5 °F 44.6 °F 93% 29.74 in 6.2 mi SE 5.8 mph - N/A   Mostly Cloudy
6:30 AM 46.4 °F 43.5 °F 44.6 °F 93% 29.74 in 6.2 mi South 5.8 mph - N/A   Light Drizzle
7:00 AM 46 °F - 44 °F 92% 29.75 in 12 mi South 8.9 mph - - Rain Light Drizzle
7:00 AM 46.4 °F 42.4 °F 44.6 °F 93% 29.74 in 6.2 mi South 8.1 mph - N/A   Mostly Cloudy
7:30 AM 46.4 °F 42.4 °F 44.6 °F 93% 29.74 in 6.2 mi SSW 8.1 mph - N/A   Overcast
8:00 AM 47 °F - 45 °F 88% 29.75 in 12 mi South 8.9 mph - - Rain Light Drizzle
8:00 AM 46.4 °F 42.4 °F 44.6 °F 93% 29.74 in 6.2 mi South 8.1 mph - N/A   Mostly Cloudy
8:30 AM 46.4 °F 44.3 °F 44.6 °F 93% 29.74 in 6.2 mi SSE 4.6 mph - N/A   Mostly Cloudy
9:00 AM 47 °F - 45 °F 89% 29.75 in 16 mi SE 8.9 mph - -   Partly Cloudy
9:00 AM 46.4 °F 42.4 °F 44.6 °F 93% 29.74 in 6.2 mi SSE 8.1 mph - N/A   Mostly Cloudy
9:30 AM 46.4 °F 42.9 °F 44.6 °F 93% 29.74 in 6.2 mi SSE 6.9 mph - N/A   Mostly Cloudy
10:00 AM 47 °F - 45 °F 90% 29.73 in 22 mi SE 6.7 mph - -   Partly Cloudy
10:00 AM 46.4 °F 42.9 °F 44.6 °F 93% 29.71 in 6.2 mi SE 6.9 mph - N/A   Mostly Cloudy
10:30 AM 48.2 °F - 44.6 °F 87% 29.71 in 6.2 mi SE 9.2 mph - N/A   Mostly Cloudy
11:00 AM 48 °F - 46 °F 88% 29.73 in 19 mi SE 8.9 mph - -   Partly Cloudy
11:00 AM 48.2 °F - 46.4 °F 93% 29.71 in 6.2 mi SE 8.1 mph - N/A   Mostly Cloudy
11:30 AM 48.2 °F - 46.4 °F 93% 29.71 in 6.2 mi SE 9.2 mph - N/A   Mostly Cloudy
12:00 PM 50 °F - 46 °F 81% 29.71 in 19 mi SE 11.2 mph - -   Partly Cloudy
12:00 PM 50.0 °F - 46.4 °F 87% 29.68 in 6.2 mi SE 10.4 mph - N/A   Mostly Cloudy
12:30 PM 51.8 °F - 46.4 °F 82% 29.68 in 6.2 mi SSE 10.4 mph - N/A   Mostly Cloudy
1:00 PM 52 °F - 45 °F 71% 29.68 in 19 mi SSE 11.2 mph - -   Mostly Cloudy
1:00 PM 51.8 °F - 44.6 °F 76% 29.65 in 6.2 mi SSE 11.5 mph - N/A   Mostly Cloudy
1:30 PM 51.8 °F - 46.4 °F 82% 29.65 in 6.2 mi SSE 15.0 mph - N/A   Mostly Cloudy
2:00 PM 51 °F - 46 °F 77% 29.65 in 25 mi SSE 15.7 mph - -   Mostly Cloudy
2:00 PM 51.8 °F - 46.4 °F 82% 29.65 in 6.2 mi SSE 15.0 mph - N/A   Mostly Cloudy
2:30 PM 51.8 °F - 46.4 °F 82% 29.62 in 6.2 mi SSE 12.7 mph - N/A   Mostly Cloudy
3:00 PM 52 °F - 47 °F 79% 29.62 in 22 mi SE 11.2 mph - - Rain Light Rain
3:00 PM 51.8 °F - 48.2 °F 88% 29.59 in 6.2 mi SE 11.5 mph - N/A Rain Light Rain
3:30 PM 51.8 °F - 48.2 °F 88% 29.59 in 6.2 mi SE 11.5 mph - N/A   Overcast
4:00 PM 52 °F - 49 °F 84% 29.58 in 19 mi SE 8.9 mph - - Rain Light Rain
4:00 PM 51.8 °F - 48.2 °F 88% 29.56 in 6.2 mi SE 9.2 mph - N/A   Mostly Cloudy
4:30 PM 51.8 °F - 48.2 °F 88% 29.53 in 6.2 mi SE 10.4 mph - N/A   Mostly Cloudy
5:00 PM 52 °F - 49 °F 87% 29.54 in 12 mi SE 13.4 mph - - Rain Light Rain
5:00 PM 51.8 °F - 50.0 °F 94% 29.53 in 6.2 mi SE 12.7 mph - N/A   Mostly Cloudy
5:30 PM 51.8 °F - 50.0 °F 94% 29.50 in 6.2 mi SSE 12.7 mph - N/A   Mostly Cloudy
6:00 PM 53 °F - 49 °F 83% 29.50 in 16 mi SSE 15.7 mph - -   Partly Cloudy
6:00 PM 51.8 °F - 50.0 °F 94% 29.47 in 6.2 mi SSE 15.0 mph - N/A   Mostly Cloudy
6:30 PM 51.8 °F - 48.2 °F 88% 29.47 in 6.2 mi SSE 12.7 mph - N/A   Mostly Cloudy
7:00 PM 52 °F - 49 °F 85% 29.49 in 16 mi SSE 15.7 mph - -   Mostly Cloudy
7:00 PM 51.8 °F - 48.2 °F 88% 29.47 in 6.2 mi SSE 16.1 mph - N/A   Mostly Cloudy
7:30 PM 51.8 °F - 48.2 °F 88% 29.44 in 6.2 mi SSE 16.1 mph - N/A   Mostly Cloudy
8:00 PM 53 °F - 49 °F 80% 29.46 in 16 mi South 15.7 mph - -   Mostly Cloudy
8:00 PM 51.8 °F - 48.2 °F 88% 29.44 in 6.2 mi South 16.1 mph - N/A   Mostly Cloudy
8:30 PM 51.8 °F - 48.2 °F 88% 29.42 in 6.2 mi South 15.0 mph - N/A Rain Light Rain
9:00 PM 52 °F - 49 °F 85% 29.42 in 9 mi SSE 20.1 mph - - Rain Light Rain
9:00 PM 51.8 °F - 48.2 °F 88% 29.42 in 6.2 mi SSE 19.6 mph - N/A   Overcast
9:30 PM 51.8 °F - 50.0 °F 94% 29.39 in 5.6 mi SSE 19.6 mph - N/A Rain Light Rain
10:00 PM 52 °F - 49 °F 87% 29.37 in 9 mi SSE 17.9 mph - - Rain Light Rain
10:00 PM 51.8 °F - 50.0 °F 94% 29.36 in 6.2 mi SSE 18.4 mph - N/A   Overcast
10:30 PM 51.8 °F - 50.0 °F 94% 29.33 in 6.2 mi SSE 18.4 mph - N/A   Mostly Cloudy
11:00 PM 52 °F - 49 °F 87% 29.32 in 7 mi SSE 20.1 mph - - Rain Light Rain
11:00 PM 51.8 °F - 50.0 °F 94% 29.30 in 6.2 mi SSE 19.6 mph - N/A Rain Light Rain
11:30 PM 51.8 °F - 50.0 °F 94% 29.27 in 6.2 mi SSE 15.0 mph - N/A   Mostly Cloudy